Temp: 16.8°C   Baro: 1017.9mb
  Wind: 10.1mph   Dir: SW (234°)
  Rain: 0.0mm (0.0mm/hr)
  Solar: 26W/m2  Hum: 88%
 
Bath Spa Weather Historical Data
Daily Summary for May 17, 2018 Units:  English    Metric   Both
Next Day »
Daily Weekly Monthly Yearly Custom
  High: Low: Average:
Temperature: 66.6 °F 43.2 °F 54.7 °F
Dew Point: 44.2 °F 37.6 °F 41 °F
Humidity: 84% 37% 62%
Wind Speed: 11mph 0mph 2.8mph
Wind Gust: 14mph - -
Wind direction- - East
Pressure: 30.4 in 30.3 in -
Precipitation: 0 in    
Historical Graphs
 
 
Tabular Data for May 17, 2018
Time Temperature Dew Point Pressure Wind direction Wind Speed Wind Gust Humidity Rainfall Rate (Hourly) solar
00:02 49.3 °F 42.1 °F 30.4 in ENE 0.9 mph 1 mph 76% 0 in 0.0 W/m2
00:07 49.1 °F 41.9 °F 30.4 in ESE 0.9 mph 5 mph 76% 0 in 0.0 W/m2
00:12 49.1 °F 41.9 °F 30.4 in ENE 0.9 mph 6 mph 76% 0 in 0.0 W/m2
00:17 48.9 °F 41.7 °F 30.4 in Calm   4 mph 76% 0 in 0.0 W/m2
00:22 48.9 °F 41.7 °F 30.4 in East 2 mph 5 mph 76% 0 in 0.0 W/m2
00:27 48.7 °F 41.5 °F 30.4 in Calm   3 mph 76% 0 in 0.0 W/m2
00:32 48.7 °F 41.5 °F 30.4 in East 2 mph 7 mph 76% 0 in 0.0 W/m2
00:37 48.6 °F 41.7 °F 30.4 in ENE 4 mph 5 mph 77% 0 in 0.0 W/m2
00:42 48.6 °F 41.7 °F 30.4 in Calm   2 mph 77% 0 in 0.0 W/m2
00:47 48.2 °F 41.4 °F 30.4 in ENE 2.9 mph 8 mph 77% 0 in 0.0 W/m2
00:52 48.2 °F 41.4 °F 30.4 in East 2 mph 3 mph 77% 0 in 0.0 W/m2
00:57 48 °F 41.2 °F 30.4 in ENE 2 mph 8 mph 77% 0 in 0.0 W/m2
01:02 47.8 °F 41 °F 30.4 in ENE 0.9 mph 5 mph 77% 0 in 0.0 W/m2
01:07 47.7 °F 40.8 °F 30.4 in Calm   6 mph 77% 0 in 0.0 W/m2
01:12 47.7 °F 40.8 °F 30.4 in ENE 0.9 mph 6 mph 77% 0 in 0.0 W/m2
01:17 47.5 °F 40.6 °F 30.4 in NE 4.9 mph 8 mph 77% 0 in 0.0 W/m2
01:22 47.3 °F 40.5 °F 30.4 in ENE 2.9 mph 4 mph 77% 0 in 0.0 W/m2
01:27 47.3 °F 40.5 °F 30.4 in East 2 mph 5 mph 77% 0 in 0.0 W/m2
01:32 47.1 °F 40.3 °F 30.4 in ESE 4.9 mph 10 mph 77% 0 in 0.0 W/m2
01:37 46.9 °F 40.5 °F 30.4 in NNE 4 mph 5 mph 78% 0 in 0.0 W/m2
01:42 46.9 °F 40.1 °F 30.4 in North 4 mph 7 mph 77% 0 in 0.0 W/m2
01:47 46.8 °F 40.3 °F 30.4 in NE 2 mph 6 mph 78% 0 in 0.0 W/m2
01:52 46.6 °F 40.1 °F 30.4 in East 2.9 mph 5 mph 78% 0 in 0.0 W/m2
01:57 46.4 °F 39.9 °F 30.4 in NNE 2 mph 9 mph 78% 0 in 0.0 W/m2
02:02 46.2 °F 39.7 °F 30.4 in ESE 2 mph 6 mph 78% 0 in 0.0 W/m2
02:07 46.2 °F 39.7 °F 30.4 in Calm   1 mph 78% 0 in 0.0 W/m2
02:12 46 °F 39.6 °F 30.4 in SE 6 mph 6 mph 78% 0 in 0.0 W/m2
02:17 46 °F 39.6 °F 30.4 in ENE 4.9 mph 11 mph 78% 0 in 0.0 W/m2
02:22 46 °F 39.6 °F 30.4 in Calm   5 mph 78% 0 in 0.0 W/m2
02:27 45.9 °F 39.4 °F 30.4 in Calm   4 mph 78% 0 in 0.0 W/m2
02:32 45.9 °F 39.4 °F 30.4 in NE 2 mph 4 mph 78% 0 in 0.0 W/m2
02:37 45.7 °F 39.6 °F 30.4 in East 2 mph 5 mph 79% 0 in 0.0 W/m2
02:42 45.5 °F 39.4 °F 30.4 in Calm   5 mph 79% 0 in 0.0 W/m2
02:47 45.5 °F 39.4 °F 30.4 in NE 4 mph 4 mph 79% 0 in 0.0 W/m2
02:52 45.3 °F 39.2 °F 30.4 in NNE 2 mph 2 mph 79% 0 in 0.0 W/m2
02:57 45.3 °F 39.2 °F 30.4 in NE 4 mph 4 mph 79% 0 in 0.0 W/m2
03:02 45.1 °F 39.4 °F 30.4 in Calm     80% 0 in 0.0 W/m2
03:07 45.1 °F 39.4 °F 30.4 in Calm   3 mph 80% 0 in 0.0 W/m2
03:12 45 °F 39.2 °F 30.4 in NE 2.9 mph 5 mph 80% 0 in 0.0 W/m2
03:17 45 °F 39.2 °F 30.4 in Calm   3 mph 80% 0 in 0.0 W/m2
03:22 44.8 °F 39.4 °F 30.4 in NNE 2 mph 3 mph 81% 0 in 0.0 W/m2
03:27 44.6 °F 39.2 °F 30.4 in NE 6.9 mph 7 mph 81% 0 in 0.0 W/m2
03:32 44.6 °F 39.2 °F 30.4 in NE 2.9 mph 3 mph 81% 0 in 0.0 W/m2
03:37 44.4 °F 39 °F 30.4 in Calm   4 mph 81% 0 in 0.0 W/m2
03:42 44.4 °F 39 °F 30.4 in ENE 4.9 mph 5 mph 81% 0 in 0.0 W/m2
03:47 44.2 °F 38.8 °F 30.4 in ENE 6 mph 6 mph 81% 0 in 0.0 W/m2
03:52 44.2 °F 38.8 °F 30.4 in North 0.9 mph 6 mph 81% 0 in 0.0 W/m2
03:57 44.2 °F 39 °F 30.4 in North 2.9 mph 4 mph 82% 0 in 0.0 W/m2
04:02 44.2 °F 39 °F 30.4 in Calm   6 mph 82% 0 in 0.0 W/m2
04:07 44.1 °F 38.8 °F 30.4 in Calm   4 mph 82% 0 in 0.0 W/m2
04:12 44.1 °F 38.8 °F 30.4 in East 2 mph 10 mph 82% 0 in 0.0 W/m2
04:17 44.1 °F 38.8 °F 30.4 in NNE 2 mph 13 mph 82% 0 in 0.0 W/m2
04:22 44.1 °F 38.8 °F 30.4 in Calm   4 mph 82% 0 in 0.0 W/m2
04:27 43.9 °F 38.7 °F 30.4 in NE 2 mph 6 mph 82% 0 in 0.0 W/m2
04:32 43.9 °F 38.7 °F 30.4 in Calm   11 mph 82% 0 in 0.0 W/m2
04:37 43.7 °F 38.5 °F 30.4 in ENE 8.1 mph 11 mph 82% 0 in 0.0 W/m2
04:42 43.7 °F 38.8 °F 30.4 in NNW 2 mph 5 mph 83% 0 in 0.0 W/m2
04:47 43.5 °F 38.7 °F 30.4 in NE 2.9 mph 4 mph 83% 0 in 0.0 W/m2
04:52 43.5 °F 38.7 °F 30.4 in ENE 2 mph 7 mph 83% 0 in 0.0 W/m2
04:57 43.5 °F 38.7 °F 30.4 in Calm   4 mph 83% 0 in 0.0 W/m2
05:02 43.5 °F 38.7 °F 30.4 in East 2 mph 6 mph 83% 0 in 0.0 W/m2
05:07 43.3 °F 38.5 °F 30.4 in ESE 0.9 mph 4 mph 83% 0 in 0.0 W/m2
05:12 43.3 °F 38.5 °F 30.4 in ENE 2 mph 8 mph 83% 0 in 0.0 W/m2
05:17 43.3 °F 38.5 °F 30.4 in Calm   7 mph 83% 0 in 0.0 W/m2
05:22 43.3 °F 38.5 °F 30.4 in Calm   2 mph 83% 0 in 5.0 W/m2
05:27 43.3 °F 38.5 °F 30.4 in East 2 mph 7 mph 83% 0 in 7.0 W/m2
05:32 43.3 °F 38.5 °F 30.4 in NNE 2.9 mph 5 mph 83% 0 in 11.0 W/m2
05:37 43.3 °F 38.8 °F 30.4 in Calm   7 mph 84% 0 in 12.0 W/m2
05:42 43.2 °F 38.7 °F 30.4 in Calm   2 mph 84% 0 in 16.0 W/m2
05:47 43.2 °F 38.7 °F 30.4 in NE 0.9 mph 5 mph 84% 0 in 18.0 W/m2
05:52 43.2 °F 38.7 °F 30.4 in South 2 mph 2 mph 84% 0 in 21.0 W/m2
05:57 43.2 °F 38.7 °F 30.4 in Calm   2 mph 84% 0 in 25.0 W/m2
06:02 43.2 °F 38.7 °F 30.4 in East 0.9 mph 3 mph 84% 0 in 25.0 W/m2
06:07 43.2 °F 38.7 °F 30.4 in NE 0.9 mph 3 mph 84% 0 in 26.0 W/m2
06:12 43.2 °F 38.7 °F 30.4 in Calm   4 mph 84% 0 in 30.0 W/m2
06:17 43.3 °F 38.8 °F 30.4 in Calm   3 mph 84% 0 in 32.0 W/m2
06:22 43.2 °F 38.7 °F 30.4 in North 0.9 mph 2 mph 84% 0 in 33.0 W/m2
06:27 43.3 °F 38.8 °F 30.4 in NNE 4 mph 9 mph 84% 0 in 37.0 W/m2
06:32 43.3 °F 38.8 °F 30.4 in North 6.9 mph 8 mph 84% 0 in 39.0 W/m2
06:37 43.3 °F 38.8 °F 30.4 in NE 2 mph 7 mph 84% 0 in 42.0 W/m2
06:42 43.5 °F 39 °F 30.4 in SE 0.9 mph 3 mph 84% 0 in 49.0 W/m2
06:47 43.7 °F 38.8 °F 30.4 in Calm   1 mph 83% 0 in 56.0 W/m2
06:52 43.7 °F 38.8 °F 30.4 in ENE 2.9 mph 3 mph 83% 0 in 67.0 W/m2
06:57 44.1 °F 39.2 °F 30.4 in ESE 2 mph 9 mph 83% 0 in 81.0 W/m2
07:02 44.2 °F 39.4 °F 30.4 in Calm   6 mph 83% 0 in 91.0 W/m2
07:07 44.4 °F 39.6 °F 30.4 in ENE 6 mph 8 mph 83% 0 in 109.0 W/m2
07:12 44.6 °F 39.4 °F 30.4 in East 0.9 mph 6 mph 82% 0 in 93.0 W/m2
07:17 45.1 °F 39.9 °F 30.4 in Calm   5 mph 82% 0 in 155.0 W/m2
07:22 45.3 °F 40.1 °F 30.4 in SE 4.9 mph 10 mph 82% 0 in 102.0 W/m2
07:27 45.5 °F 40.1 °F 30.4 in NNE 0.9 mph 8 mph 81% 0 in 118.0 W/m2
07:32 45.5 °F 40.1 °F 30.4 in Calm   7 mph 81% 0 in 113.0 W/m2
07:37 45.5 °F 40.1 °F 30.4 in ESE 0.9 mph 7 mph 81% 0 in 148.0 W/m2
07:42 45.5 °F 39.7 °F 30.4 in SE 4.9 mph 8 mph 80% 0 in 135.0 W/m2
07:47 46 °F 40.3 °F 30.4 in East 0.9 mph 7 mph 80% 0 in 134.0 W/m2
07:52 46.2 °F 40.5 °F 30.4 in NE 2 mph 8 mph 80% 0 in 301.0 W/m2
07:57 46.6 °F 40.5 °F 30.4 in NE 0.9 mph 9 mph 79% 0 in 174.0 W/m2
08:02 46.9 °F 40.5 °F 30.4 in ENE 4.9 mph 6 mph 78% 0 in 311.0 W/m2
08:07 46.9 °F 40.5 °F 30.4 in East 4.9 mph 7 mph 78% 0 in 315.0 W/m2
08:12 48.2 °F 41.4 °F 30.4 in Calm   3 mph 77% 0 in 332.0 W/m2
08:17 48.2 °F 40.6 °F 30.4 in NE 8.1 mph 8.1 mph 75% 0 in 336.0 W/m2
08:22 47.8 °F 40.3 °F 30.4 in NNE 8.1 mph 11 mph 75% 0 in 352.0 W/m2
08:27 48.4 °F 40.8 °F 30.4 in East 8.1 mph 9 mph 75% 0 in 369.0 W/m2
08:32 49.1 °F 41.2 °F 30.4 in NE 4 mph 9 mph 74% 0 in 385.0 W/m2
08:37 49.3 °F 40.6 °F 30.4 in ESE 4 mph 5 mph 72% 0 in 403.0 W/m2
08:42 49.5 °F 40.8 °F 30.4 in East 2.9 mph 7 mph 72% 0 in 415.0 W/m2
08:48 50 °F 41.4 °F 30.4 in NNW 4 mph 5 mph 72% 0 in 427.0 W/m2
08:53 50 °F 41.4 °F 30.4 in ESE 2.9 mph 8 mph 72% 0 in 446.0 W/m2
08:58 50.7 °F 41.4 °F 30.4 in North 0.9 mph 5 mph 70% 0 in 457.0 W/m2
09:03 51.1 °F 41.2 °F 30.4 in NNE 2.9 mph 7 mph 69% 0 in 469.0 W/m2
09:08 51.3 °F 41.4 °F 30.4 in East 0.9 mph 4 mph 69% 0 in 483.0 W/m2
09:13 52.2 °F 41.5 °F 30.4 in SE 2 mph 7 mph 67% 0 in 496.0 W/m2
09:18 52.5 °F 41.5 °F 30.4 in NE 8.9 mph 9 mph 66% 0 in 508.0 W/m2
09:23 52.2 °F 41.2 °F 30.4 in NE 2 mph 7 mph 66% 0 in 524.0 W/m2
09:28 52.5 °F 41.5 °F 30.4 in NE 2 mph 11 mph 66% 0 in 534.0 W/m2
09:33 52.3 °F 41 °F 30.4 in NNE 6.9 mph 10 mph 65% 0 in 547.0 W/m2
09:38 52.3 °F 40.5 °F 30.4 in NNE 2.9 mph 11 mph 64% 0 in 563.0 W/m2
09:43 53.1 °F 40.8 °F 30.4 in NE 4.9 mph 12 mph 63% 0 in 575.0 W/m2
09:48 53.4 °F 42.3 °F 30.4 in Calm   7 mph 66% 0 in 580.0 W/m2
09:53 54 °F 42.4 °F 30.4 in NE 8.1 mph 10 mph 65% 0 in 598.0 W/m2
09:58 54.9 °F 43.7 °F 30.4 in NNE 8.1 mph 8.1 mph 66% 0 in 599.0 W/m2
10:03 54.7 °F 42.8 °F 30.4 in ESE 2.9 mph 9 mph 64% 0 in 612.0 W/m2
10:08 55.4 °F 42.3 °F 30.4 in East 2.9 mph 10 mph 61% 0 in 621.0 W/m2
10:13 54.9 °F 42.1 °F 30.4 in SE 4.9 mph 12 mph 62% 0 in 629.0 W/m2
10:18 56.1 °F 42.8 °F 30.4 in SE 11 mph 11 mph 61% 0 in 642.0 W/m2
10:23 55.2 °F 42.4 °F 30.4 in NE 6 mph 13 mph 62% 0 in 664.0 W/m2
10:28 55.4 °F 41.7 °F 30.4 in East 4.9 mph 10 mph 60% 0 in 663.0 W/m2
10:33 55.4 °F 41.7 °F 30.4 in ESE 8.9 mph 13 mph 60% 0 in 664.0 W/m2
10:38 56.1 °F 42.4 °F 30.4 in ESE 2.9 mph 7 mph 60% 0 in 677.0 W/m2
10:43 56.5 °F 42.3 °F 30.4 in NE 2.9 mph 4 mph 59% 0 in 689.0 W/m2
10:48 56.5 °F 41.9 °F 30.4 in SE 4.9 mph 10 mph 58% 0 in 710.0 W/m2
10:53 57.4 °F 41.4 °F 30.4 in ENE 2 mph 10 mph 55% 0 in 693.0 W/m2
10:58 57.6 °F 41.5 °F 30.4 in Calm   8 mph 55% 0 in 728.0 W/m2
11:03 57.4 °F 41.9 °F 30.4 in SE 6.9 mph 7 mph 56% 0 in 721.0 W/m2
11:08 57.9 °F 42.3 °F 30.4 in ESE 2 mph 4 mph 56% 0 in 751.0 W/m2
11:13 59.4 °F 42.8 °F 30.4 in NE 6.9 mph 11 mph 54% 0 in 712.0 W/m2
11:18 59.2 °F 42.1 °F 30.4 in NE 2 mph 8 mph 53% 0 in 754.0 W/m2
11:23 59 °F 41.4 °F 30.4 in SE 6 mph 8 mph 52% 0 in 770.0 W/m2
11:28 58.8 °F 41.2 °F 30.4 in NE 2.9 mph 8 mph 52% 0 in 782.0 W/m2
11:33 59.2 °F 40.6 °F 30.4 in North 2.9 mph 9 mph 50% 0 in 798.0 W/m2
11:38 59.2 °F 41 °F 30.4 in SE 6 mph 10 mph 51% 0 in 793.0 W/m2
11:43 59.4 °F 41.7 °F 30.4 in ESE 4.9 mph 10 mph 52% 0 in 814.0 W/m2
11:48 60.1 °F 41.9 °F 30.4 in NE 0.9 mph 2 mph 51% 0 in 814.0 W/m2
11:53 61.2 °F 42.4 °F 30.4 in ESE 6.9 mph 7 mph 50% 0 in 791.0 W/m2
11:58 59.5 °F 39.9 °F 30.3 in ESE 0.9 mph 12 mph 48% 0 in 742.0 W/m2
12:03 59.4 °F 40.3 °F 30.4 in SE 4.9 mph 7 mph 49% 0 in 809.0 W/m2
12:08 59.4 °F 39.7 °F 30.4 in ESE 2 mph 8 mph 48% 0 in 800.0 W/m2
12:13 60.4 °F 40.1 °F 30.4 in NW 2.9 mph 10 mph 47% 0 in 826.0 W/m2
12:18 62.2 °F 40.1 °F 30.3 in East 6 mph 6 mph 44% 0 in 696.0 W/m2
12:23 61.7 °F 39.6 °F 30.3 in ESE 2.9 mph 5 mph 44% 0 in 594.0 W/m2
12:28 61.2 °F 40.3 °F 30.3 in ESE 0.9 mph 8 mph 46% 0 in 578.0 W/m2
12:33 58.5 °F 39.9 °F 30.3 in SE 8.1 mph 8.1 mph 50% 0 in 577.0 W/m2
12:38 59.9 °F 41.2 °F 30.3 in East 4.9 mph 9 mph 50% 0 in 642.0 W/m2
12:43 61.9 °F 39.7 °F 30.3 in ESE 6 mph 9 mph 44% 0 in 765.0 W/m2
12:48 61.2 °F 41.4 °F 30.3 in ESE 2.9 mph 4 mph 48% 0 in 830.0 W/m2
12:53 62.1 °F 39.9 °F 30.3 in NE 2.9 mph 13 mph 44% 0 in 833.0 W/m2
12:58 62.1 °F 41 °F 30.3 in ESE 0.9 mph 7 mph 46% 0 in 742.0 W/m2
13:03 63.3 °F 41.5 °F 30.3 in SSE 4.9 mph 9 mph 45% 0 in 828.0 W/m2
13:08 61.9 °F 39.7 °F 30.3 in SSE 2 mph 9 mph 44% 0 in 840.0 W/m2
13:13 63.1 °F 39.7 °F 30.3 in East 4.9 mph 8 mph 42% 0 in 895.0 W/m2
13:18 63.7 °F 39.6 °F 30.3 in SE 2.9 mph 9 mph 41% 0 in 861.0 W/m2
13:23 62.8 °F 38.7 °F 30.3 in East 4.9 mph 12 mph 41% 0 in 529.0 W/m2
13:28 63 °F 38.8 °F 30.3 in ESE 8.9 mph 11 mph 41% 0 in 926.0 W/m2
13:33 63 °F 39.6 °F 30.3 in NE 8.1 mph 12 mph 42% 0 in 693.0 W/m2
13:38 63.3 °F 39.9 °F 30.3 in NNE 8.9 mph 10 mph 42% 0 in 870.0 W/m2
13:43 64.2 °F 41.2 °F 30.3 in East 4.9 mph 7 mph 43% 0 in 893.0 W/m2
13:48 65.8 °F 42.1 °F 30.3 in ENE 2 mph 8 mph 42% 0 in 879.0 W/m2
13:53 64.4 °F 40.8 °F 30.3 in North 4 mph 9 mph 42% 0 in 714.0 W/m2
13:58 64.2 °F 41.2 °F 30.3 in North 2.9 mph 7 mph 43% 0 in 889.0 W/m2
14:03 65.7 °F 40.1 °F 30.3 in NE 4.9 mph 11 mph 39% 0 in 784.0 W/m2
14:08 66.6 °F 40.1 °F 30.3 in Calm   2 mph 38% 0 in 898.0 W/m2
14:13 66 °F 41.7 °F 30.3 in East 10.1 mph 10.1 mph 41% 0 in 826.0 W/m2
14:18 65.3 °F 39 °F 30.3 in ESE 2.9 mph 10 mph 38% 0 in 884.0 W/m2
14:23 63.7 °F 38.3 °F 30.3 in North 2.9 mph 10 mph 39% 0 in 870.0 W/m2
14:28 65.1 °F 40.8 °F 30.3 in East 0.9 mph 8 mph 41% 0 in 826.0 W/m2
14:33 66.4 °F 39.9 °F 30.3 in NNE 6.9 mph 8 mph 38% 0 in 606.0 W/m2
14:38 64.4 °F 37.6 °F 30.3 in North 8.9 mph 10 mph 37% 0 in 617.0 W/m2
14:43 64.4 °F 39.6 °F 30.3 in NNE 2.9 mph 7 mph 40% 0 in 543.0 W/m2
14:48 64.4 °F 40.8 °F 30.3 in ENE 2.9 mph 5 mph 42% 0 in 663.0 W/m2
14:53 64.4 °F 40.8 °F 30.3 in East 4.9 mph 7 mph 42% 0 in 782.0 W/m2
14:58 65.8 °F 41.5 °F 30.3 in ENE 4.9 mph 9 mph 41% 0 in 932.0 W/m2
15:03 66.6 °F 40.8 °F 30.3 in East 8.1 mph 9 mph 39% 0 in 868.0 W/m2
15:08 65.8 °F 40.8 °F 30.3 in Calm   7 mph 40% 0 in 886.0 W/m2
15:13 65.3 °F 40.3 °F 30.3 in ESE 4 mph 9 mph 40% 0 in 788.0 W/m2
15:18 64.8 °F 41.2 °F 30.3 in ENE 4 mph 5 mph 42% 0 in 744.0 W/m2
15:23 65.1 °F 40.8 °F 30.3 in ESE 4.9 mph 13 mph 41% 0 in 719.0 W/m2
15:28 65.8 °F 42.1 °F 30.3 in NE 8.1 mph 8.1 mph 42% 0 in 635.0 W/m2
15:33 65.1 °F 40.8 °F 30.3 in NE 8.9 mph 12 mph 41% 0 in 396.0 W/m2
15:38 63.9 °F 41 °F 30.3 in NE 4 mph 7 mph 43% 0 in 459.0 W/m2
15:43 63.5 °F 41.2 °F 30.3 in NE 2 mph 12 mph 44% 0 in 601.0 W/m2
15:48 64.2 °F 40.6 °F 30.3 in North 4.9 mph 6 mph 42% 0 in 645.0 W/m2
15:53 64.6 °F 41.5 °F 30.3 in SE 4.9 mph 6 mph 43% 0 in 738.0 W/m2
15:58 64.2 °F 40.1 °F 30.3 in NNE 2 mph 14 mph 41% 0 in 719.0 W/m2
16:03 65.1 °F 41.5 °F 30.3 in East 6 mph 8 mph 42% 0 in 629.0 W/m2
16:08 65.3 °F 41.5 °F 30.3 in East 2 mph 7 mph 42% 0 in 554.0 W/m2
16:13 64 °F 41.7 °F 30.3 in North 2.9 mph 7 mph 44% 0 in 482.0 W/m2
16:18 63.9 °F 41.5 °F 30.3 in NE 11 mph 11 mph 44% 0 in 346.0 W/m2
16:23 63.7 °F 41.4 °F 30.3 in North 4.9 mph 10 mph 44% 0 in 417.0 W/m2
16:28 62.8 °F 41.2 °F 30.3 in NE 2 mph 7 mph 45% 0 in 492.0 W/m2
16:33 63.9 °F 41 °F 30.3 in NNE 8.1 mph 8.1 mph 43% 0 in 563.0 W/m2
16:38 64.2 °F 40.1 °F 30.3 in North 2.9 mph 8 mph 41% 0 in 487.0 W/m2
16:44 64.2 °F 40.1 °F 30.3 in NE 6 mph 10 mph 41% 0 in 429.0 W/m2
16:49 63 °F 39.6 °F 30.3 in NNE 8.9 mph 9 mph 42% 0 in 350.0 W/m2
16:54 63.3 °F 41 °F 30.3 in NE 2.9 mph 7 mph 44% 0 in 315.0 W/m2
16:59 63.5 °F 41.2 °F 30.3 in ENE 4.9 mph 5 mph 44% 0 in 438.0 W/m2
17:04 64.4 °F 42.1 °F 30.3 in ENE 2.9 mph 7 mph 44% 0 in 446.0 W/m2
17:09 64 °F 41.7 °F 30.3 in NNE 4.9 mph 8 mph 44% 0 in 506.0 W/m2
17:14 63.9 °F 42.1 °F 30.3 in Calm   5 mph 45% 0 in 575.0 W/m2
17:19 64.9 °F 42.4 °F 30.3 in ESE 2 mph 3 mph 44% 0 in 520.0 W/m2
17:24 65.7 °F 42.6 °F 30.3 in NE 0.9 mph 7 mph 43% 0 in 577.0 W/m2
17:29 65.3 °F 41.5 °F 30.3 in ESE 4.9 mph 8 mph 42% 0 in 508.0 W/m2
17:34 64.9 °F 42.4 °F 30.3 in NE 4 mph 8 mph 44% 0 in 501.0 W/m2
17:39 64.4 °F 41.4 °F 30.3 in NE 0.9 mph 10 mph 43% 0 in 445.0 W/m2
17:44 64.4 °F 42.1 °F 30.3 in ESE 4.9 mph 5 mph 44% 0 in 446.0 W/m2
17:49 64.4 °F 42.6 °F 30.3 in NE 0.9 mph 7 mph 45% 0 in 429.0 W/m2
17:54 64.4 °F 40.8 °F 30.3 in ENE 6.9 mph 8 mph 42% 0 in 422.0 W/m2
17:59 64.9 °F 41.9 °F 30.3 in East 6 mph 9 mph 43% 0 in 394.0 W/m2
18:04 65.8 °F 42.1 °F 30.3 in ENE 4.9 mph 10 mph 42% 0 in 387.0 W/m2
18:09 66.2 °F 42.4 °F 30.3 in ESE 4.9 mph 7 mph 42% 0 in 374.0 W/m2
18:14 66 °F 42.3 °F 30.3 in NE 4 mph 5 mph 42% 0 in 359.0 W/m2
18:19 65.8 °F 42.1 °F 30.3 in North 2.9 mph 6 mph 42% 0 in 330.0 W/m2
18:24 65.7 °F 42.6 °F 30.3 in NE 2 mph 5 mph 43% 0 in 325.0 W/m2
18:29 65.5 °F 41.7 °F 30.3 in East 0.9 mph 6 mph 42% 0 in 315.0 W/m2
18:34 65.3 °F 41.5 °F 30.3 in ENE 2.9 mph 7 mph 42% 0 in 294.0 W/m2
18:39 64.9 °F 41.9 °F 30.3 in North 2 mph 7 mph 43% 0 in 287.0 W/m2
18:44 64.8 °F 41.7 °F 30.3 in ENE 2 mph 8 mph 43% 0 in 267.0 W/m2
18:49 64.8 °F 41.7 °F 30.3 in NE 0.9 mph 3 mph 43% 0 in 206.0 W/m2
18:54 64.2 °F 40.6 °F 30.3 in NE 2.9 mph 6 mph 42% 0 in 216.0 W/m2
18:59 64 °F 40.5 °F 30.3 in ESE 2 mph 6 mph 42% 0 in 176.0 W/m2
19:04 64 °F 41.2 °F 30.3 in SSE 0.9 mph 5 mph 43% 0 in 183.0 W/m2
19:09 63.9 °F 41.5 °F 30.3 in ESE 6.9 mph 9 mph 44% 0 in 190.0 W/m2
19:14 63.9 °F 42.1 °F 30.3 in East 0.9 mph 2 mph 45% 0 in 179.0 W/m2
19:19 63.5 °F 41.2 °F 30.3 in East 4 mph 7 mph 44% 0 in 167.0 W/m2
19:24 63.9 °F 42.1 °F 30.3 in NE 0.9 mph 5 mph 45% 0 in 144.0 W/m2
19:29 64 °F 42.8 °F 30.3 in East 6 mph 7 mph 46% 0 in 137.0 W/m2
19:34 64 °F 42.8 °F 30.3 in North 2 mph 8 mph 46% 0 in 127.0 W/m2
19:39 63.7 °F 42.4 °F 30.3 in NNE 6 mph 8 mph 46% 0 in 116.0 W/m2
19:44 63 °F 41.9 °F 30.3 in NE 0.9 mph 5 mph 46% 0 in 104.0 W/m2
19:49 62.6 °F 41.5 °F 30.3 in East 6 mph 6 mph 46% 0 in 90.0 W/m2
19:54 62.6 °F 42.1 °F 30.3 in Calm   2 mph 47% 0 in 77.0 W/m2
19:59 62.8 °F 42.8 °F 30.3 in ENE 2.9 mph 3 mph 48% 0 in 70.0 W/m2
20:04 62.4 °F 42.4 °F 30.3 in NE 0.9 mph 3 mph 48% 0 in 60.0 W/m2
20:09 62.2 °F 42.8 °F 30.3 in ENE 0.9 mph 6 mph 49% 0 in 51.0 W/m2
20:14 62.1 °F 43.2 °F 30.3 in Calm   2 mph 50% 0 in 40.0 W/m2
20:19 61.9 °F 43 °F 30.3 in ENE 0.9 mph 2 mph 50% 0 in 33.0 W/m2
20:24 61.7 °F 42.8 °F 30.3 in ENE 2.9 mph 5 mph 50% 0 in 26.0 W/m2
20:29 61.2 °F 43 °F 30.3 in ENE 2 mph 5 mph 51% 0 in 23.0 W/m2
20:34 60.6 °F 43 °F 30.3 in ENE 0.9 mph 3 mph 52% 0 in 19.0 W/m2
20:39 59.9 °F 43.2 °F 30.3 in NE 2 mph 4 mph 54% 0 in 16.0 W/m2
20:44 59.5 °F 42.8 °F 30.3 in NE 2 mph 3 mph 54% 0 in 12.0 W/m2
20:49 59.2 °F 43 °F 30.3 in Calm   2 mph 55% 0 in 7.0 W/m2
20:54 59 °F 43.3 °F 30.3 in Calm   2 mph 56% 0 in 0.0 W/m2
20:59 58.8 °F 43.2 °F 30.3 in Calm   1 mph 56% 0 in 0.0 W/m2
21:04 58.6 °F 43.5 °F 30.3 in Calm   1 mph 57% 0 in 0.0 W/m2
21:09 58.1 °F 43.3 °F 30.3 in Calm   1 mph 58% 0 in 0.0 W/m2
21:14 57.9 °F 43.7 °F 30.3 in NE 0.9 mph 2 mph 59% 0 in 0.0 W/m2
21:19 57.6 °F 43.3 °F 30.3 in Calm   2 mph 59% 0 in 0.0 W/m2
21:24 57.2 °F 43.5 °F 30.3 in Calm     60% 0 in 0.0 W/m2
21:29 57 °F 43.7 °F 30.3 in Calm     61% 0 in 0.0 W/m2
21:34 56.8 °F 43.9 °F 30.3 in Calm   2 mph 62% 0 in 0.0 W/m2
21:39 56.7 °F 43.7 °F 30.3 in Calm   3 mph 62% 0 in 0.0 W/m2
21:44 56.3 °F 43.9 °F 30.3 in Calm   2 mph 63% 0 in 0.0 W/m2
21:49 56.1 °F 44.1 °F 30.3 in East 0.9 mph 5 mph 64% 0 in 0.0 W/m2
21:54 55.8 °F 44.2 °F 30.3 in ENE 2 mph 3 mph 65% 0 in 0.0 W/m2
21:59 55.4 °F 43.9 °F 30.3 in Calm   2 mph 65% 0 in 0.0 W/m2
22:04 55.2 °F 44.1 °F 30.3 in Calm   2 mph 66% 0 in 0.0 W/m2
22:09 55 °F 43.9 °F 30.3 in Calm   1 mph 66% 0 in 0.0 W/m2
22:14 54.9 °F 44.1 °F 30.3 in Calm   1 mph 67% 0 in 0.0 W/m2
22:19 54.7 °F 44.2 °F 30.3 in Calm   2 mph 68% 0 in 0.0 W/m2
22:24 54.3 °F 44.1 °F 30.3 in Calm   1 mph 68% 0 in 0.0 W/m2
22:29 54.1 °F 43.9 °F 30.3 in ENE 0.9 mph 3 mph 68% 0 in 0.0 W/m2
22:34 54 °F 44.1 °F 30.3 in Calm   3 mph 69% 0 in 0.0 W/m2
22:39 53.8 °F 43.9 °F 30.3 in Calm   3 mph 69% 0 in 0.0 W/m2
22:44 53.6 °F 43.7 °F 30.3 in ENE 2 mph 5 mph 69% 0 in 0.0 W/m2
22:49 53.4 °F 43.9 °F 30.3 in Calm   2 mph 70% 0 in 0.0 W/m2
22:54 53.2 °F 43.7 °F 30.3 in Calm   2 mph 70% 0 in 0.0 W/m2
22:59 53.1 °F 43.5 °F 30.3 in NE 0.9 mph 5 mph 70% 0 in 0.0 W/m2
23:04 52.9 °F 43.3 °F 30.3 in Calm   3 mph 70% 0 in 0.0 W/m2
23:09 52.5 °F 43 °F 30.3 in Calm   6 mph 70% 0 in 0.0 W/m2
23:14 52.3 °F 43.2 °F 30.3 in Calm   2 mph 71% 0 in 0.0 W/m2
23:19 52.2 °F 43 °F 30.3 in Calm   3 mph 71% 0 in 0.0 W/m2
23:24 51.8 °F 42.6 °F 30.3 in Calm   1 mph 71% 0 in 0.0 W/m2
23:29 51.6 °F 42.4 °F 30.3 in ENE 2 mph 5 mph 71% 0 in 0.0 W/m2
23:34 51.4 °F 42.4 °F 30.3 in East 2.9 mph 4 mph 71% 0 in 0.0 W/m2
23:39 51.3 °F 42.3 °F 30.3 in Calm   6 mph 71% 0 in 0.0 W/m2
23:44 51.1 °F 42.4 °F 30.3 in Calm   3 mph 72% 0 in 0.0 W/m2
23:49 50.9 °F 42.3 °F 30.3 in Calm   4 mph 72% 0 in 0.0 W/m2
23:54 50.7 °F 42.1 °F 30.3 in ESE 0.9 mph 4 mph 72% 0 in 0.0 W/m2
23:59 50.5 °F 41.9 °F 30.3 in East 0.9 mph 4 mph 72% 0 in 0.0 W/m2